SL-8 R/B, 3230

Orbit data source: Space-Track

SL-8 R/B, 3230 is space debris in LEO originally from a launch on Tue, 07 May 1968 UTC launched from the Plesetsk Missile And Space Complex (PKMTR). Debris objects in space refer to the collection of defunct objects orbiting the Earth. Examples of debris include non-operational satellites, rocket bodies, and fragments generated from explosions, collisions, or faulty payload assembly.

Loading next visibility...
Identifier
3230, 1968-040B
Orbit
LEO
Country
Flag of CISCIS
Related business
Manufacturer
Yuzhnoe
Mission
Spacecraft
Bus & Motor
S3, Unknown motor
Mass
1,434 kg wet, 1,434 kg dry
Launch date (UTC)
1968-05-07 (58 years ago)
Launch vehicle
Unknown
Launch site
Plesetsk Missile And Space Complex (PKMTR)
Object type
Payload
Rocket body
Debris
Shape & HBR
Unknown
Radar Cross Section
Large (>1 m²)

Expand to show TLE details & history
Last TLE update: 16 hours ago

TLE from 16 hours ago
0 SL-8 R/B
1 03230U 68040B   26033.43455691  .00003554  00000-0  26549-3 0  9993
2 03230  74.0308  25.7123 0025588 219.3791 140.5538 15.02974829 84715
Epoch: 2026-02-02T10:25Z
TLE epoch observation values (Epoch: 2026-02-02T10:25:45.717Z)
Latitude
-0°
Longitude
96.64192°
Altitude
574.146 km
Speed
7.566 km/s
True Right ascension
01h 42m 50s
True Declination
0° 00' 00"
Sunlit
Object was in daylight at epoch
Visualization orbit readout
Latitude
Unknown
Longitude
Unknown
Altitude
Unknown
Speed
Unknown
Apparent Right ascension
Unknown
Apparent Declination
Unknown
Sunlit
N/A
Visualization observer readout
Local Sidereal Time
03:59:18
Azimuth
Unknown
Elevation
Unknown
Doppler factor
Unknown
Orbital elements
Apogee altitude
573.021 km
Perigee altitude
537.539 km
Semi-major axis
6,933.417 km
Eccentricity
0.00256
Inclination
74.0308°
RAAN
25.7123°
Arg. of periapsis
219.3791°
True anomaly
140.73964°
Mean anomaly
140.5538°
Eccentric anomaly
140.64676°
Mean motion
3.75943 °/min
Orbital period
95.76 mins
BSTAR
0.00026549
Loading maneuver chart data...
Computing Atmospheric mass density...
Loading historical data...
Loading historical data...
Loading historical data...
Loading historical data...
Loading historical data...
Loading historical data...
Loading historical data...
Other satellites on launch #40 in the year 1968 (1968-05-07 UTC)

Documentation

Showing up to 5 results
|